QPF
0.07 0.06 0.04 0.04 0.04 0.03 0.03 0.03 0.02 0.01 0.02 0.02 0.01 0.01 0.00 0.00 0.00 0.00 0.00 0.00 0.00 0.00 0.00 0.00 0.00 0.00 0.00 0.00 0.00 0.01 0.01 0.01 0.01 0.01 0.02 0.03 0.04 0.05 0.06 0.06 0.05 0.05 0.04 0.01
0.05 0.04 0.02 0.02 0.03 0.04 0.03 0.03 0.02 0.02 0.01 0.02 0.01 0.01 0.00 0.00 0.00 0.00 0.00 0.00 0.00 0.00 0.00 0.00 0.00 0.00 0.00 0.00 0.00 0.00 0.01 0.01 0.01 0.01 0.01 0.02 0.03 0.05 0.05 0.05 0.05 0.05 0.03 0.01
0.02 0.02 0.01 0.02 0.03 0.04 0.04 0.04 0.03 0.03 0.03 0.02 0.02 0.01 0.00 0.00 0.00 0.00 0.00 0.00 0.00 0.00 0.00 0.00 0.00 0.00 0.00 0.00 0.00 0.00 0.00 0.01 0.01 0.01 0.02 0.03 0.04 0.05 0.05 0.05 0.05 0.05 0.03 0.02
0.02 0.01 0.01 0.02 0.03 0.03 0.03 0.03 0.03 0.03 0.05 0.05 0.03 0.02 0.01 0.00 0.00 0.01 0.00 0.00 0.00 0.00 0.00 0.00 0.00 0.00 0.00 0.00 0.00 0.00 0.00 0.01 0.02 0.01 0.01 0.03 0.03 0.05 0.04 0.04 0.04 0.04 0.03 0.03
0.03 0.02 0.02 0.01 0.01 0.02 0.02 0.02 0.02 0.03 0.04 0.06 0.04 0.03 0.01 0.01 0.01 0.01 0.00 0.00 0.00 0.00 0.00 0.00 0.00 0.00 0.00 0.00 0.00 0.00 0.01 0.01 0.02 0.01 0.01 0.02 0.03 0.04 0.04 0.03 0.03 0.04 0.03 0.03
0.01 0.02 0.02 0.02 0.01 0.01 0.02 0.02 0.02 0.03 0.05 0.06 0.02 0.03 0.02 0.02 0.01 0.01 0.00 0.00 0.00 0.00 0.00 0.01 0.01 0.01 0.00 0.00 0.00 0.00 0.01 0.01 0.01 0.01 0.01 0.01 0.03 0.03 0.03 0.03 0.02 0.03 0.03 0.03
0.01 0.01 0.01 0.02 0.02 0.02 0.02 0.03 0.05 0.05 0.06 0.04 0.01 0.01 0.01 0.01 0.01 0.01 0.00 0.00 0.00 0.00 0.00 0.01 0.01 0.01 0.01 0.00 0.00 0.01 0.01 0.01 0.01 0.01 0.01 0.01 0.02 0.03 0.02 0.02 0.02 0.02 0.02 0.03
0.01 0.01 0.01 0.01 0.01 0.02 0.02 0.04 0.06 0.05 0.02 0.01 0.00 0.01 0.01 0.01 0.01 0.00 0.00 0.00 0.00 0.00 0.00 0.00 0.00 0.00 0.01 0.01 0.01 0.01 0.01 0.01 0.01 0.01 0.01 0.01 0.02 0.03 0.02 0.02 0.02 0.02 0.02 0.02
0.02 0.01 0.00 0.00 0.00 0.01 0.03 0.03 0.03 0.06 0.04 0.02 0.01 0.02 0.02 0.00 0.00 0.00 0.00 0.00 0.00 0.00 0.00 0.00 0.00 0.00 0.00 0.01 0.01 0.01 0.01 0.01 0.01 0.01 0.01 0.02 0.02 0.03 0.03 0.01 0.02 0.03 0.03 0.03
0.01 0.01 0.01 0.01 0.00 0.01 0.02 0.03 0.03 0.06 0.06 0.03 0.01 0.01 0.01 0.00 0.00 0.00 0.00 0.00 0.00 0.00 0.00 0.00 0.00 0.00 0.00 0.01 0.01 0.01 0.02 0.02 0.01 0.01 0.01 0.02 0.02 0.04 0.04 0.03 0.01 0.02 0.03 0.04
0.01 0.01 0.01 0.01 0.01 0.01 0.01 0.02 0.04 0.05 0.05 0.04 0.02 0.01 0.00 0.00 0.00 0.00 0.00 0.00 0.01 0.01 0.01 0.01 0.00 0.00 0.01 0.01 0.02 0.01 0.02 0.02 0.02 0.01 0.01 0.01 0.01 0.03 0.04 0.04 0.03 0.02 0.02 0.04
0.01 0.02 0.01 0.00 0.01 0.01 0.02 0.02 0.03 0.06 0.05 0.03 0.03 0.01 0.00 0.00 0.00 0.01 0.01 0.00 0.01 0.02 0.02 0.02 0.01 0.00 0.01 0.01 0.02 0.02 0.02 0.02 0.03 0.02 0.02 0.01 0.01 0.02 0.04 0.04 0.04 0.03 0.03 0.03
0.02 0.03 0.02 0.01 0.01 0.02 0.02 0.02 0.03 0.05 0.06 0.04 0.03 0.01 0.00 0.00 0.00 0.01 0.01 0.01 0.01 0.01 0.02 0.02 0.01 0.00 0.01 0.02 0.02 0.03 0.02 0.02 0.03 0.02 0.01 0.01 0.01 0.02 0.03 0.04 0.05 0.06 0.05 0.04
0.03 0.04 0.02 0.01 0.01 0.02 0.02 0.02 0.02 0.04 0.06 0.04 0.02 0.01 0.00 0.00 0.01 0.01 0.01 0.01 0.01 0.01 0.02 0.02 0.01 0.00 0.01 0.02 0.02 0.03 0.03 0.02 0.04 0.04 0.02 0.01 0.02 0.02 0.02 0.03 0.03 0.04 0.06 0.06
0.03 0.03 0.01 0.01 0.00 0.01 0.01 0.01 0.01 0.02 0.03 0.03 0.01 0.01 0.00 0.00 0.01 0.01 0.01 0.01 0.01 0.01 0.02 0.02 0.02 0.01 0.01 0.02 0.02 0.02 0.03 0.02 0.03 0.06 0.03 0.01 0.01 0.01 0.01 0.02 0.02 0.02 0.04 0.06
0.02 0.02 0.01 0.01 0.01 0.00 0.01 0.01 0.00 0.00 0.01 0.01 0.01 0.01 0.00 0.00 0.00 0.01 0.01 0.01 0.01 0.01 0.02 0.03 0.03 0.02 0.01 0.01 0.02 0.03 0.03 0.02 0.02 0.04 0.03 0.01 0.01 0.01 0.01 0.01 0.01 0.02 0.02 0.04
0.03 0.03 0.03 0.02 0.00 0.01 0.01 0.00 0.00 0.00 0.01 0.01 0.01 0.01 0.01 0.00 0.00 0.00 0.01 0.01 0.01 0.01 0.02 0.02 0.03 0.03 0.02 0.02 0.02 0.02 0.03 0.03 0.02 0.02 0.02 0.01 0.01 0.01 0.01 0.01 0.01 0.01 0.02 0.03
0.02 0.04 0.06 0.03 0.02 0.03 0.01 0.00 0.00 0.00 0.00 0.01 0.01 0.01 0.00 0.00 0.00 0.00 0.00 0.01 0.02 0.02 0.02 0.03 0.03 0.03 0.02 0.01 0.01 0.01 0.02 0.03 0.02 0.01 0.01 0.01 0.01 0.01 0.01 0.01 0.01 0.01 0.01 0.03
0.01 0.03 0.06 0.06 0.04 0.02 0.00 0.00 0.00 0.00 0.00 0.01 0.01 0.01 0.01 0.01 0.00 0.01 0.01 0.02 0.01 0.01 0.02 0.02 0.02 0.03 0.02 0.01 0.01 0.01 0.02 0.02 0.03 0.02 0.01 0.01 0.01 0.01 0.01 0.01 0.01 0.01 0.01 0.02
0.01 0.02 0.06 0.06 0.05 0.02 0.01 0.00 0.00 0.01 0.01 0.00 0.01 0.01 0.01 0.01 0.01 0.00 0.00 0.00 0.00 0.00 0.00 0.01 0.02 0.02 0.02 0.02 0.01 0.01 0.02 0.02 0.03 0.02 0.02 0.02 0.01 0.01 0.01 0.01 0.01 0.02 0.02 0.02
0.01 0.03 0.05 0.04 0.05 0.02 0.00 0.00 0.00 0.01 0.01 0.01 0.01 0.01 0.01 0.01 0.01 0.01 0.00 0.00 0.00 0.00 0.00 0.00 0.01 0.02 0.01 0.01 0.00 0.01 0.01 0.02 0.03 0.03 0.03 0.02 0.01 0.01 0.00 0.01 0.02 0.02 0.03 0.04
0.02 0.03 0.03 0.03 0.05 0.02 0.00 0.00 0.01 0.01 0.01 0.01 0.01 0.01 0.01 0.01 0.01 0.00 0.00 0.00 0.00 0.00 0.00 0.00 0.01 0.02 0.02 0.01 0.00 0.00 0.00 0.01 0.01 0.03 0.03 0.02 0.02 0.01 0.01 0.01 0.01 0.02 0.03 0.03
0.01 0.01 0.02 0.02 0.02 0.01 0.00 0.01 0.01 0.01 0.01 0.01 0.02 0.01 0.01 0.00 0.00 0.01 0.00 0.00 0.00 0.00 0.00 0.01 0.01 0.01 0.02 0.01 0.01 0.00 0.00 0.00 0.01 0.02 0.02 0.02 0.01 0.01 0.01 0.01 0.02 0.02 0.03 0.03
0.01 0.00 0.01 0.02 0.01 0.01 0.00 0.00 0.00 0.01 0.01 0.01 0.00 0.01 0.01 0.01 0.01 0.01 0.01 0.00 0.00 0.00 0.00 0.01 0.01 0.01 0.02 0.02 0.01 0.01 0.01 0.01 0.01 0.02 0.02 0.02 0.02 0.01 0.01 0.01 0.02 0.02 0.02 0.02
0.00 0.01 0.01 0.01 0.01 0.01 0.00 0.00 0.00 0.01 0.01 0.00 0.01 0.01 0.01 0.01 0.01 0.01 0.00 0.00 0.00 0.00 0.00 0.01 0.01 0.01 0.02 0.03 0.02 0.01 0.01 0.01 0.02 0.02 0.03 0.03 0.02 0.01 0.02 0.03 0.03 0.03 0.02 0.03
0.00 0.00 0.01 0.01 0.00 0.01 0.00 0.00 0.00 0.00 0.01 0.01 0.01 0.01 0.01 0.01 0.01 0.00 0.00 0.00 0.00 0.00 0.00 0.01 0.01 0.02 0.02 0.03 0.02 0.01 0.02 0.02 0.02 0.02 0.03 0.03 0.03 0.03 0.03 0.04 0.05 0.05 0.04 0.04
MSLP
1010.53 1010.82 1011.00 1011.08 1011.10 1011.08 1011.05 1011.00 1010.92 1010.76 1010.50 1010.08 1009.51 1008.78 1007.94 1007.04 1006.16 1005.35 1004.65 1004.08 1003.62 1003.25 1002.94 1002.63 1002.31 1001.98 1001.66 1001.38 1001.20 1001.14 1001.23 1001.48 1001.85 1002.31 1002.80 1003.30 1003.75 1004.15 1004.48 1004.77 1005.04 1005.33 1005.64 1005.99
1010.68 1010.87 1010.97 1011.03 1011.08 1011.13 1011.20 1011.25 1011.26 1011.16 1010.89 1010.43 1009.74 1008.88 1007.89 1006.86 1005.88 1005.02 1004.33 1003.83 1003.49 1003.26 1003.08 1002.89 1002.66 1002.36 1002.01 1001.67 1001.38 1001.20 1001.16 1001.27 1001.53 1001.90 1002.33 1002.77 1003.19 1003.57 1003.89 1004.18 1004.46 1004.75 1005.06 1005.42
1010.67 1010.75 1010.79 1010.84 1010.93 1011.08 1011.26 1011.44 1011.55 1011.50 1011.23 1010.69 1009.89 1008.88 1007.73 1006.56 1005.47 1004.57 1003.91 1003.50 1003.29 1003.23 1003.22 1003.18 1003.05 1002.82 1002.48 1002.09 1001.71 1001.40 1001.21 1001.18 1001.30 1001.55 1001.88 1002.24 1002.61 1002.95 1003.25 1003.54 1003.82 1004.11 1004.44 1004.79
1010.50 1010.48 1010.48 1010.54 1010.69 1010.94 1011.26 1011.57 1011.77 1011.77 1011.48 1010.87 1009.95 1008.78 1007.47 1006.15 1004.97 1004.04 1003.40 1003.08 1003.01 1003.12 1003.28 1003.41 1003.41 1003.25 1002.94 1002.52 1002.06 1001.64 1001.32 1001.13 1001.10 1001.21 1001.42 1001.68 1001.97 1002.26 1002.53 1002.80 1003.07 1003.37 1003.69 1004.05
1010.22 1010.12 1010.09 1010.17 1010.40 1010.76 1011.21 1011.63 1011.92 1011.96 1011.65 1010.97 1009.93 1008.61 1007.16 1005.72 1004.45 1003.48 1002.87 1002.62 1002.68 1002.93 1003.26 1003.53 1003.65 1003.57 1003.30 1002.87 1002.35 1001.83 1001.39 1001.07 1000.89 1000.86 1000.94 1001.10 1001.29 1001.51 1001.73 1001.96 1002.21 1002.50 1002.82 1003.17
1009.89 1009.74 1009.69 1009.81 1010.12 1010.58 1011.13 1011.66 1012.01 1012.07 1011.74 1011.00 1009.86 1008.43 1006.85 1005.31 1003.98 1002.98 1002.39 1002.19 1002.34 1002.70 1003.14 1003.53 1003.74 1003.72 1003.48 1003.04 1002.48 1001.90 1001.36 1000.93 1000.64 1000.48 1000.45 1000.50 1000.60 1000.73 1000.89 1001.07 1001.28 1001.54 1001.84 1002.19
1009.56 1009.38 1009.35 1009.51 1009.88 1010.42 1011.05 1011.64 1012.04 1012.11 1011.76 1010.96 1009.76 1008.25 1006.61 1005.01 1003.64 1002.63 1002.04 1001.87 1002.06 1002.47 1002.97 1003.40 1003.66 1003.67 1003.44 1003.00 1002.42 1001.79 1001.20 1000.70 1000.33 1000.09 999.96 999.92 999.93 999.98 1000.06 1000.18 1000.34 1000.56 1000.83 1001.16
1009.28 1009.10 1009.09 1009.29 1009.71 1010.30 1010.98 1011.59 1011.99 1012.05 1011.68 1010.86 1009.63 1008.10 1006.44 1004.84 1003.46 1002.45 1001.87 1001.70 1001.88 1002.28 1002.76 1003.17 1003.41 1003.41 1003.16 1002.71 1002.13 1001.49 1000.88 1000.36 999.96 999.68 999.50 999.39 999.34 999.32 999.33 999.37 999.47 999.63 999.87 1000.16
1009.08 1008.92 1008.94 1009.17 1009.61 1010.22 1010.89 1011.48 1011.86 1011.89 1011.50 1010.67 1009.45 1007.95 1006.33 1004.77 1003.44 1002.45 1001.87 1001.67 1001.80 1002.13 1002.52 1002.85 1003.00 1002.95 1002.66 1002.20 1001.62 1001.00 1000.42 999.92 999.54 999.27 999.08 998.95 998.86 998.78 998.72 998.70 998.73 998.83 999.00 999.25
1008.97 1008.85 1008.90 1009.14 1009.58 1010.15 1010.77 1011.30 1011.61 1011.60 1011.18 1010.36 1009.19 1007.77 1006.24 1004.78 1003.52 1002.58 1002.00 1001.76 1001.79 1002.00 1002.26 1002.44 1002.48 1002.32 1001.98 1001.50 1000.93 1000.36 999.84 999.41 999.09 998.87 998.71 998.59 998.48 998.37 998.27 998.18 998.13 998.16 998.27 998.47
1008.96 1008.88 1008.96 1009.20 1009.60 1010.10 1010.62 1011.04 1011.24 1011.16 1010.71 1009.91 1008.80 1007.49 1006.10 1004.77 1003.62 1002.74 1002.17 1001.88 1001.81 1001.87 1001.96 1001.97 1001.86 1001.59 1001.18 1000.68 1000.14 999.63 999.20 998.86 998.63 998.48 998.39 998.30 998.20 998.07 997.92 997.77 997.66 997.61 997.65 997.78
1009.04 1009.02 1009.11 1009.33 1009.65 1010.04 1010.42 1010.69 1010.76 1010.58 1010.08 1009.30 1008.27 1007.08 1005.84 1004.66 1003.64 1002.84 1002.29 1001.96 1001.78 1001.70 1001.61 1001.46 1001.20 1000.82 1000.36 999.84 999.34 998.90 998.55 998.32 998.19 998.12 998.08 998.03 997.94 997.80 997.61 997.42 997.24 997.12 997.09 997.16
1009.23 1009.24 1009.33 1009.50 1009.73 1009.98 1010.18 1010.28 1010.19 1009.88 1009.32 1008.54 1007.58 1006.51 1005.42 1004.40 1003.51 1002.80 1002.28 1001.92 1001.66 1001.45 1001.22 1000.93 1000.55 1000.09 999.58 999.07 998.61 998.24 997.98 997.84 997.79 997.78 997.79 997.76 997.67 997.51 997.29 997.04 996.81 996.64 996.54 996.54
1009.49 1009.52 1009.59 1009.69 1009.80 1009.88 1009.90 1009.79 1009.53 1009.08 1008.45 1007.66 1006.75 1005.78 1004.83 1003.95 1003.20 1002.59 1002.11 1001.74 1001.43 1001.13 1000.80 1000.41 999.95 999.44 998.93 998.44 998.03 997.72 997.53 997.45 997.44 997.47 997.49 997.45 997.34 997.15 996.89 996.61 996.33 996.10 995.96 995.90
1009.78 1009.80 1009.83 1009.84 1009.81 1009.72 1009.54 1009.23 1008.79 1008.20 1007.49 1006.67 1005.80 1004.92 1004.09 1003.34 1002.70 1002.18 1001.75 1001.40 1001.07 1000.73 1000.35 999.92 999.43 998.93 998.44 997.99 997.63 997.37 997.23 997.17 997.18 997.19 997.18 997.11 996.95 996.72 996.42 996.10 995.79 995.52 995.34 995.25
1010.03 1010.02 1009.97 1009.87 1009.70 1009.43 1009.06 1008.57 1007.96 1007.25 1006.46 1005.62 1004.78 1003.97 1003.24 1002.60 1002.06 1001.62 1001.25 1000.92 1000.60 1000.26 999.88 999.46 999.00 998.54 998.10 997.71 997.41 997.19 997.07 997.01 996.98 996.95 996.88 996.74 996.52 996.24 995.90 995.55 995.21 994.93 994.74 994.63
1010.13 1010.05 1009.90 1009.68 1009.36 1008.94 1008.40 1007.76 1007.02 1006.21 1005.37 1004.53 1003.72 1002.98 1002.32 1001.77 1001.32 1000.95 1000.63 1000.34 1000.06 999.75 999.40 999.03 998.63 998.24 997.88 997.56 997.31 997.12 997.00 996.91 996.83 996.73 996.58 996.37 996.09 995.75 995.39 995.02 994.69 994.41 994.22 994.11
1009.95 1009.77 1009.52 1009.17 1008.72 1008.16 1007.50 1006.75 1005.93 1005.08 1004.23 1003.41 1002.65 1001.98 1001.41 1000.93 1000.55 1000.23 999.96 999.71 999.46 999.20 998.90 998.60 998.28 997.97 997.69 997.45 997.25 997.09 996.96 996.84 996.70 996.53 996.30 996.02 995.69 995.33 994.95 994.60 994.29 994.04 993.88 993.79
1009.41 1009.12 1008.75 1008.28 1007.72 1007.07 1006.34 1005.54 1004.71 1003.87 1003.06 1002.31 1001.63 1001.04 1000.55 1000.14 999.81 999.54 999.30 999.08 998.85 998.62 998.38 998.13 997.89 997.66 997.46 997.29 997.14 997.00 996.87 996.72 996.54 996.31 996.04 995.72 995.37 995.01 994.66 994.34 994.08 993.88 993.76 993.70
1008.45 1008.05 1007.57 1007.02 1006.38 1005.68 1004.93 1004.15 1003.37 1002.61 1001.90 1001.25 1000.68 1000.20 999.79 999.45 999.17 998.92 998.69 998.47 998.25 998.04 997.82 997.61 997.43 997.27 997.13 997.01 996.90 996.79 996.67 996.51 996.31 996.06 995.78 995.46 995.13 994.80 994.51 994.26 994.07 993.95 993.88 993.86
1007.13 1006.63 1006.07 1005.46 1004.79 1004.10 1003.39 1002.69 1002.02 1001.39 1000.82 1000.32 999.88 999.52 999.20 998.92 998.67 998.43 998.19 997.95 997.71 997.47 997.25 997.06 996.89 996.76 996.66 996.58 996.51 996.43 996.32 996.17 995.99 995.76 995.50 995.23 994.96 994.71 994.50 994.34 994.24 994.19 994.18 994.21
1005.55 1004.99 1004.40 1003.77 1003.13 1002.49 1001.88 1001.30 1000.78 1000.32 999.92 999.58 999.29 999.04 998.82 998.59 998.36 998.10 997.83 997.54 997.25 996.97 996.71 996.49 996.32 996.19 996.09 996.03 995.98 995.92 995.84 995.73 995.58 995.40 995.20 995.00 994.82 994.67 994.56 994.50 994.49 994.52 994.58 994.66
1003.92 1003.35 1002.76 1002.17 1001.60 1001.07 1000.58 1000.16 999.81 999.53 999.31 999.13 998.98 998.84 998.68 998.49 998.26 997.98 997.65 997.30 996.93 996.58 996.26 995.99 995.77 995.61 995.50 995.43 995.39 995.34 995.29 995.21 995.11 995.00 994.88 994.76 994.68 994.62 994.62 994.66 994.73 994.84 994.96 995.08
1002.44 1001.92 1001.40 1000.90 1000.44 1000.04 999.71 999.45 999.27 999.15 999.09 999.04 999.00 998.94 998.83 998.65 998.39 998.07 997.68 997.25 996.80 996.36 995.96 995.61 995.33 995.12 994.98 994.88 994.82 994.78 994.73 994.69 994.64 994.58 994.53 994.49 994.49 994.53 994.61 994.73 994.88 995.05 995.22 995.39
1001.34 1000.93 1000.53 1000.16 999.84 999.59 999.40 999.30 999.25 999.27 999.31 999.36 999.38 999.36 999.25 999.05 998.76 998.37 997.91 997.40 996.87 996.35 995.87 995.44 995.09 994.82 994.62 994.48 994.38 994.31 994.27 994.23 994.20 994.17 994.17 994.20 994.25 994.35 994.49 994.67 994.88 995.09 995.31 995.51
1000.78 1000.53 1000.29 1000.08 999.92 999.80 999.75 999.75 999.81 999.89 999.99 1000.07 1000.10 1000.06 999.92 999.68 999.33 998.88 998.35 997.77 997.16 996.57 996.01 995.52 995.10 994.76 994.49 994.29 994.14 994.03 993.95 993.89 993.85 993.83 993.84 993.88 993.97 994.10 994.27 994.48 994.71 994.96 995.21 995.46
Thickness
5618 5610 5609 5614 5619 5621 5620 5618 5621 5634 5646 5641 5642 5649 5663 5673 5676 5678 5681 5685 5689 5694 5702 5706 5708 5709 5710 5711 5711 5710 5709 5708 5707 5704 5703 5702 5701 5702 5702 5702 5702 5700 5698 5696
5607 5606 5616 5619 5618 5615 5611 5608 5613 5626 5638 5634 5634 5644 5659 5669 5672 5674 5676 5679 5683 5687 5692 5695 5698 5699 5700 5702 5704 5704 5704 5703 5702 5702 5701 5700 5698 5698 5698 5698 5698 5697 5695 5693
5602 5611 5616 5613 5608 5605 5605 5603 5607 5611 5621 5627 5625 5633 5651 5665 5669 5672 5674 5677 5680 5681 5682 5686 5689 5690 5691 5693 5696 5699 5699 5699 5698 5697 5694 5692 5690 5689 5690 5691 5692 5692 5691 5690
5604 5611 5608 5604 5601 5599 5597 5607 5606 5605 5600 5603 5612 5605 5640 5653 5657 5662 5666 5669 5672 5675 5677 5679 5681 5682 5684 5687 5690 5691 5693 5693 5693 5691 5688 5686 5685 5686 5689 5689 5688 5687 5687 5686
5597 5602 5600 5597 5600 5599 5597 5603 5600 5598 5592 5591 5603 5595 5625 5646 5647 5654 5659 5663 5665 5667 5670 5672 5674 5676 5678 5680 5681 5683 5685 5686 5686 5685 5683 5681 5681 5683 5684 5683 5682 5682 5682 5681
5595 5601 5598 5598 5599 5597 5595 5592 5592 5592 5585 5579 5601 5595 5613 5635 5643 5648 5653 5655 5656 5658 5661 5664 5667 5668 5670 5672 5673 5674 5675 5677 5679 5678 5678 5677 5676 5677 5676 5676 5676 5676 5676 5676
5588 5594 5597 5595 5588 5589 5584 5572 5567 5569 5570 5581 5608 5601 5614 5637 5645 5645 5644 5645 5648 5649 5649 5651 5654 5656 5659 5662 5663 5665 5667 5669 5671 5671 5671 5671 5672 5672 5671 5672 5672 5671 5671 5671
5572 5578 5589 5588 5582 5577 5576 5571 5558 5555 5564 5582 5597 5597 5618 5636 5639 5640 5639 5638 5639 5640 5640 5641 5644 5646 5648 5652 5655 5656 5658 5660 5663 5664 5665 5666 5666 5666 5667 5667 5668 5668 5668 5668
5565 5570 5585 5584 5583 5576 5569 5566 5571 5557 5557 5556 5578 5601 5617 5629 5629 5627 5626 5625 5625 5627 5629 5631 5634 5637 5640 5642 5645 5647 5649 5652 5655 5657 5658 5658 5659 5659 5661 5662 5662 5662 5663 5662
5559 5552 5569 5574 5573 5572 5567 5565 5555 5547 5540 5545 5570 5586 5594 5608 5610 5612 5612 5611 5612 5614 5617 5620 5623 5626 5629 5632 5635 5638 5641 5643 5645 5647 5649 5651 5651 5653 5654 5654 5654 5655 5656 5655
5551 5540 5550 5558 5557 5557 5556 5553 5549 5544 5544 5538 5546 5574 5602 5600 5601 5600 5600 5600 5600 5601 5604 5608 5612 5615 5618 5621 5624 5626 5629 5633 5635 5637 5640 5641 5642 5644 5644 5645 5646 5647 5647 5647
5543 5534 5532 5548 5561 5562 5555 5550 5542 5530 5533 5539 5536 5560 5596 5594 5593 5591 5589 5590 5591 5591 5593 5596 5600 5603 5605 5608 5612 5614 5617 5620 5623 5627 5629 5631 5632 5633 5634 5636 5638 5638 5639 5639
5532 5521 5515 5530 5542 5544 5541 5541 5536 5529 5523 5524 5525 5550 5585 5581 5578 5578 5576 5577 5579 5580 5582 5585 5588 5590 5592 5596 5599 5601 5604 5608 5612 5615 5617 5619 5621 5622 5624 5626 5628 5629 5629 5629
5523 5513 5510 5514 5526 5526 5522 5525 5525 5517 5511 5517 5529 5545 5562 5564 5562 5564 5565 5566 5567 5569 5571 5573 5574 5577 5580 5583 5586 5588 5592 5596 5599 5602 5604 5607 5609 5612 5614 5615 5616 5617 5618 5618
5511 5503 5508 5516 5523 5523 5522 5522 5521 5517 5517 5514 5530 5539 5552 5553 5551 5552 5554 5555 5557 5559 5561 5562 5561 5563 5566 5569 5572 5575 5578 5582 5586 5587 5590 5593 5596 5599 5602 5603 5604 5605 5606 5606
5501 5495 5499 5504 5513 5514 5516 5522 5523 5522 5522 5523 5526 5536 5549 5546 5545 5544 5544 5544 5545 5547 5548 5549 5550 5551 5552 5554 5557 5561 5564 5567 5570 5572 5575 5579 5582 5585 5588 5590 5591 5592 5593 5594
5490 5485 5483 5488 5501 5499 5502 5522 5522 5523 5527 5525 5523 5535 5539 5536 5536 5535 5535 5535 5534 5534 5535 5536 5537 5537 5539 5541 5544 5547 5550 5552 5555 5558 5561 5564 5567 5570 5573 5576 5577 5579 5580 5581
5484 5478 5471 5474 5477 5473 5511 5532 5530 5526 5529 5529 5529 5531 5529 5528 5529 5529 5527 5524 5523 5524 5524 5524 5524 5525 5527 5529 5532 5535 5538 5539 5542 5544 5546 5549 5552 5555 5559 5561 5563 5565 5567 5569
5487 5475 5465 5463 5465 5482 5510 5522 5522 5516 5518 5523 5521 5521 5520 5519 5516 5518 5518 5515 5512 5511 5512 5512 5512 5513 5514 5516 5518 5521 5524 5526 5528 5530 5532 5535 5538 5541 5544 5547 5549 5552 5554 5555
5487 5474 5462 5460 5459 5469 5506 5517 5516 5507 5501 5512 5510 5507 5506 5503 5493 5500 5504 5502 5500 5500 5500 5500 5500 5501 5502 5503 5506 5508 5511 5512 5514 5516 5518 5522 5524 5527 5530 5532 5535 5539 5541 5542
5469 5463 5459 5456 5456 5473 5502 5506 5502 5483 5489 5498 5498 5496 5493 5487 5484 5488 5490 5489 5488 5487 5487 5487 5487 5487 5489 5491 5493 5495 5497 5499 5501 5503 5505 5508 5511 5513 5516 5519 5522 5525 5527 5529
5465 5458 5456 5454 5451 5468 5497 5492 5485 5484 5489 5488 5487 5485 5482 5480 5480 5479 5477 5475 5475 5475 5475 5475 5474 5475 5477 5479 5481 5483 5484 5486 5488 5490 5492 5495 5497 5499 5503 5505 5508 5511 5513 5515
5469 5469 5467 5465 5471 5486 5489 5485 5485 5482 5478 5477 5474 5474 5472 5471 5469 5468 5466 5464 5464 5464 5464 5463 5462 5464 5466 5468 5469 5470 5472 5473 5475 5477 5479 5481 5484 5486 5489 5491 5494 5497 5500 5502
5471 5473 5467 5465 5474 5478 5479 5478 5476 5473 5469 5468 5466 5464 5462 5460 5459 5457 5455 5454 5453 5453 5452 5451 5451 5452 5453 5455 5457 5457 5459 5461 5463 5464 5466 5469 5471 5473 5476 5478 5480 5482 5485 5487
5462 5462 5456 5456 5465 5465 5467 5466 5465 5463 5460 5458 5455 5453 5451 5449 5448 5446 5444 5444 5443 5443 5441 5439 5438 5439 5440 5442 5443 5445 5446 5448 5449 5451 5454 5456 5458 5460 5462 5464 5466 5468 5471 5474
5456 5451 5447 5451 5457 5453 5456 5456 5454 5451 5448 5446 5443 5442 5441 5438 5436 5434 5433 5432 5431 5430 5428 5427 5426 5426 5427 5429 5430 5433 5435 5436 5437 5439 5441 5443 5444 5447 5449 5451 5454 5457 5459 5463